Weather History for KMIE - May, 2013

Change the Weather History Date:

Monday, May 13, 2013

  Actual Average Record
Temperature  
Mean Temperature 52 °F 61 °F  
Max Temperature 63 °F 71 °F 86 °F (1982)
Min Temperature 40 °F 51 °F 37 °F (2001)
Degree Days  
Heating Degree Days 13 6  
Month to date heating degree days 55 95  
Since 1 July heating degree days 5338 5687  
Cooling Degree Days 0 2  
Month to date cooling degree days 22 16  
Year to date cooling degree days 35 31  
Growing Degree Days 2 (Base 50)    
Moisture  
Dew Point 29 °F    
Average Humidity 46    
Maximum Humidity 71    
Minimum Humidity 20    
Precipitation  
Precipitation 0.00 in 0.14 in 0.94 in (1978)
Month to date precipitation 0.59 1.67  
Year to date precipitation 13.26 12.83  
Sea Level Pressure  
Sea Level Pressure 30.13 in    
Wind  
Wind Speed 6 mph (WNW)    
Max Wind Speed 20 mph    
Max Gust Speed 25 mph    
Visibility 10 miles    
Events      
T = Trace of Precipitation, MM = Missing Value Source: NWS Daily Summary

Daily Weather History Graph

Daily Weather History Graph

Search for Another Location

Airport or City:

Trip Planner

Search our weather history database for the weather conditions in past years. The results will help you decide how hot, cold, wet, or windy it might be!

Date:

Astronomy

May. 13, 2013 Rise Set
Actual Time 6:27 AM EDT 8:49 PM EDT
Civil Twilight 5:56 AM EDT 9:19 PM EDT
Nautical Twilight 5:19 AM EDT 9:57 PM EDT
Astronomical Twilight 4:37 AM EDT 10:39 PM EDT
Moon 9:12 AM EDT (5/13) 11:57 PM EDT (5/13)
Length of Visible Light 15h 22m
Length of Day
14h 21m
Waxing Crescent, 12% of the Moon is Illuminated
May 13
Waxing Crescent
May 18
First Quarter
May 25
Full
May 31
Last Quarter
Jun 8
New

Hourly Weather History & Observations

Time (EDT) Temp. Windchill Dew Point Humidity Pressure Visibility Wind Dir Wind Speed Gust Speed Precip Events Conditions
12:53 AM 44.1 °F 42.5 °F 30.9 °F 60% 30.13 in 10.0 mi East 3.5 mph - N/A   Overcast
1:53 AM 44.1 °F - 30.9 °F 60% 30.12 in 10.0 mi Calm Calm - N/A   Overcast
2:53 AM 45.0 °F 43.5 °F 30.9 °F 58% 30.11 in 10.0 mi SSE 3.5 mph - N/A   Overcast
3:53 AM 45.0 °F 42.6 °F 30.0 °F 56% 30.11 in 10.0 mi South 4.6 mph - N/A   Overcast
4:53 AM 43.0 °F 41.3 °F 32.0 °F 65% 30.10 in 10.0 mi SSW 3.5 mph - N/A   Overcast
5:53 AM 42.1 °F 39.2 °F 30.9 °F 65% 30.10 in 10.0 mi SSW 4.6 mph - N/A   Partly Cloudy
6:53 AM 41.0 °F - 30.9 °F 67% 30.12 in 10.0 mi Calm Calm - N/A   Clear
7:53 AM 44.1 °F 40.8 °F 34.0 °F 68% 30.14 in 10.0 mi NE 5.8 mph - N/A   Clear
8:53 AM 46.9 °F - 32.0 °F 56% 30.16 in 10.0 mi Calm Calm - N/A   Clear
9:53 AM 51.1 °F - 33.1 °F 50% 30.17 in 8.0 mi North 4.6 mph - N/A   Partly Cloudy
10:53 AM 54.0 °F - 33.1 °F 45% 30.18 in 10.0 mi NNW 8.1 mph - N/A   Clear
11:53 AM 55.9 °F - 23.0 °F 28% 30.18 in 10.0 mi WNW 12.7 mph 19.6 mph N/A   Partly Cloudy
12:53 PM 57.0 °F - 21.9 °F 26% 30.18 in 10.0 mi NNW 13.8 mph 20.7 mph N/A   Clear
1:53 PM 59.0 °F - 23.0 °F 25% 30.17 in 10.0 mi WNW 10.4 mph 18.4 mph N/A   Clear
2:53 PM 60.1 °F - 24.1 °F 25% 30.15 in 10.0 mi WNW 10.4 mph 21.9 mph N/A   Clear
4:53 PM 63.0 °F - 25.0 °F 24% 30.12 in 10.0 mi NNW 13.8 mph 23.0 mph N/A   Clear
5:53 PM 62.1 °F - 21.9 °F 21% 30.11 in 10.0 mi NW 12.7 mph 21.9 mph N/A   Clear
6:53 PM 62.1 °F - 21.9 °F 21% 30.10 in 10.0 mi WNW 8.1 mph - N/A   Clear
8:53 PM 57.9 °F - 27.0 °F 31% 30.12 in 10.0 mi Calm Calm - N/A   Clear
9:53 PM 53.1 °F - 30.0 °F 41% 30.12 in 7.0 mi South 3.5 mph - N/A   Clear
10:53 PM 46.9 °F - 36.0 °F 66% 30.12 in 10.0 mi Calm Calm - N/A   Clear
11:53 PM 48.0 °F - 39.0 °F 71% 30.11 in 10.0 mi Calm Calm - N/A   Clear